COSMOS 2500 (755)

Last updated on June 23, 2019, 3:41 a.m. UTC

1 40001U 14032A   19173.37016619 -.00000067  00000-0  00000+0 0  9992
2 40001  65.5731  39.6921 0004565 199.2549 281.6764  2.13102730 39075
UTC
Height (km)
Latitude
Longitude
Inclination
Orbital Period
UTC large
Height (km)
Speed (km/s)
/
Latitude / Longitude
Inclination (degrees)
Orbital Period (minutes)
Azimuth
Elevation
Range (km)
Doppler Factor
iOS Compass Heading
iOS Angle

Next 30 passes for location: Hong Kong

Rise time Rise Azimuth (degrees) Set time Set Azimuth (degrees) Duration Max altitude (degrees)

No matching passes for this satellites